OneWeb SL0445

operational
NORAD ID: 51639 Int'l Des: 2022-012 Owner: ONEWEBN Country: UK Constellation: oneweb
LEOCIRCULARPOLARONEWEB_TYPE

About OneWeb SL0445

Description loading...

Live Position

Loading 3D Globe...

Upcoming Passes

Altitude History

Altitude vs Time

uPlot chart will show altitude changes over time

Two-Line Element Set

1 51639U 22012T 25305.64858411 -.00000494 00000-0 -14523-2 0 9999
2 51639 87.8794 81.5936 0001678 90.3296 269.8024 13.10374077179542
Epoch: Nov 1, 2025 • Age: 21 hours

Current Status

Altitude 1235.2 km
Velocity 7.24 km/s
Sub-Earth Point -33.85°S, 28.62°E
Launch Date Feb 10, 2022
Age 3.7 years
Type internet

Technical Details

Classification Payload
Mass 148.00 kg
Dry Mass 140.00 kg
Total Mass 148.00 kg
Length 1.30 m
Diameter 1.00 m
Span 5.00 m
Shape Trapezoid+2 pan
Manufacturer ONEWUS
Bus Type ARROW
Phase Status In Orbit
Owner/State ONEWEBN/UK

Large Constellations

Loading constellations...